(°C)
-2°
-2°
-1°
(°C)
-5°
-5°
-4°
-3°
-1°
ЮЮЗ
ЮЮЗ
ЮЮЗ
ЮЮВ
В
ВСВ
В
(км/ч)
3-9
3-6
3-6
3-10
5-17
6-17
8-22
(мм)
0
0
0
0
0
0
0
(%)
0
0
5
5
5
5
5

Sun elevation

/ -14.4°
sun-icon
UV 4
06:37
20:16
Прибывающая луна (37°)
08:16
23:51

METAR for Rothenburg (LSME)

Время Условия Температура/
Точка росы
Ветер Видимость Погода Облачность Давление Изменить Необработанный
-2°C / -3°C variable 0kt - Clear 1024 - LSME 150250Z AUTO 00000KT 9999NDV NCD M02/M03 Q1024 RMK
-2°C / -4°C variable 0kt - Clear 1024 - LSME 150220Z AUTO 00000KT 9999NDV NCD M02/M04 Q1024 RMK
-1°C / -3°C variable 0kt - Clear 1024 - LSME 150150Z AUTO 00000KT 9999NDV NCD M01/M03 Q1024 RMK
-1°C / -3°C variable 0kt - Clear 1024 - LSME 150120Z AUTO 00000KT 9999NDV NCD M01/M03 Q1024 RMK
-1°C / -3°C variable 0kt - Clear 1024 - LSME 150050Z AUTO 00000KT 9999NDV NCD M01/M03 Q1024 RMK
0°C / -3°C variable 0kt - Clear 1024 - LSME 150020Z AUTO 00000KT 9999NDV NCD M00/M03 Q1024 RMK
1°C / -3°C variable 0kt - Few Clouds 6900ft 1025 - LSME 142350Z AUTO 00000KT 9999NDV FEW069 01/M03 Q1025 RMK
0°C / -3°C variable 0kt - Few Clouds 6600ft 1025 - LSME 142320Z AUTO 00000KT 9999NDV FEW066 00/M03 Q1025 RMK
1°C / -3°C variable 0kt - Scattered Clouds 6200ft 1025 - LSME 142250Z AUTO 00000KT 9999NDV SCT062 01/M03 Q1025 RMK
2°C / -3°C variable 2kt - Scattered Clouds 6900ft 1025 - LSME 142220Z AUTO VRB02KT 9999NDV SCT069 02/M03 Q1025 RMK
2°C / -3°C 20º 4kt - Broken Clouds 6900ft 1025 - LSME 142150Z AUTO 02004KT 9999NDV BKN069 02/M03 Q1025 RMK
2°C / -3°C 350º 2kt - Broken Clouds 6900ft 1025 - LSME 142120Z AUTO 35002KT 9999NDV BKN069 02/M03 Q1025 RMK
3°C / -3°C 360º 2kt - Scattered Clouds 7000ft 1025 - LSME 142050Z AUTO 36002KT 9999NDV SCT070 03/M03 Q1025 RMK
2°C / -3°C 20º variable 320º to 060º 3kt - Few Clouds 7500ft 1025 - LSME 142020Z AUTO 02003KT 320V060 9999NDV FEW075 SCT100 02/M03 Q1025 RMK
3°C / -3°C variable 0kt - Scattered Clouds 9900ft 1025 - LSME 141950Z AUTO 00000KT 9999NDV SCT099 03/M03 Q1025 RMK
2°C / -3°C 40º 2kt - Broken Clouds 10000ft 1025 - LSME 141920Z AUTO 04002KT 9999NDV BKN100 02/M03 Q1025 RMK
5°C / -3°C 20º 5kt - Few Clouds 5300ft 1024 - LSME 141850Z AUTO 02005KT 9999NDV FEW053 BKN099 05/M03 Q1024 RMK
5°C / -4°C 10º 2kt - Broken Clouds 9200ft 1024 - LSME 141820Z AUTO 01002KT 9999NDV BKN092 05/M04 Q1024 RMK
5°C / -4°C 40º 4kt - Scattered Clouds 7100ft 1024 - LSME 141750Z AUTO 04004KT 9999NDV SCT071 BKN093 05/M04 Q1024 RMK
7°C / -5°C 20º 8kt - Broken Clouds 6700ft 1024 - LSME 141720Z AUTO 02008KT 9999NDV BKN067 BKN076 BKN093 07/M05 Q1024 RMK
7°C / -6°C variable 1kt Gust 11kt - Scattered Clouds 6400ft 1023 - LSME 141650Z AUTO VRB01G11KT 9999NDV SCT064 SCT079 BKN091 07/M06 Q1023 RMK
7°C / -7°C 30º variable 340º to 080º 3kt - Few Clouds 7000ft 1023 - LSME 141620Z AUTO 03003KT 340V080 9999NDV FEW070 BKN089 07/M07 Q1023 RMK
7°C / -7°C 30º 6kt - Scattered Clouds 7100ft 1023 - LSME 141550Z AUTO 03006KT 9999NDV SCT071 OVC087 07/M07 Q1023 RMK
8°C / -7°C 80º variable 030º to 120º 7kt - Scattered Clouds 6900ft 1024 - LSME 141520Z AUTO 08007KT 030V120 9999NDV SCT069 BKN084 08/M07 Q1024 RMK

-2°C / -3°C

[Больше]
Ветер variable 0kt
Видимость
Погода -
Облачность Clear
Давление 1024
Изменить -
Необработанный LSME 150250Z AUTO 00000KT 9999NDV NCD M02/M03 Q1024 RMK

-2°C / -4°C

[Больше]
Ветер variable 0kt
Видимость
Погода -
Облачность Clear
Давление 1024
Изменить -
Необработанный LSME 150220Z AUTO 00000KT 9999NDV NCD M02/M04 Q1024 RMK

-1°C / -3°C

[Больше]
Ветер variable 0kt
Видимость
Погода -
Облачность Clear
Давление 1024
Изменить -
Необработанный LSME 150150Z AUTO 00000KT 9999NDV NCD M01/M03 Q1024 RMK

-1°C / -3°C

[Больше]
Ветер variable 0kt
Видимость
Погода -
Облачность Clear
Давление 1024
Изменить -
Необработанный LSME 150120Z AUTO 00000KT 9999NDV NCD M01/M03 Q1024 RMK

-1°C / -3°C

[Больше]
Ветер variable 0kt
Видимость
Погода -
Облачность Clear
Давление 1024
Изменить -
Необработанный LSME 150050Z AUTO 00000KT 9999NDV NCD M01/M03 Q1024 RMK

0°C / -3°C

[Больше]
Ветер variable 0kt
Видимость
Погода -
Облачность Clear
Давление 1024
Изменить -
Необработанный LSME 150020Z AUTO 00000KT 9999NDV NCD M00/M03 Q1024 RMK

1°C / -3°C

[Больше]
Ветер variable 0kt
Видимость
Погода -
Облачность Few Clouds 6900ft
Давление 1025
Изменить -
Необработанный LSME 142350Z AUTO 00000KT 9999NDV FEW069 01/M03 Q1025 RMK

0°C / -3°C

[Больше]
Ветер variable 0kt
Видимость
Погода -
Облачность Few Clouds 6600ft
Давление 1025
Изменить -
Необработанный LSME 142320Z AUTO 00000KT 9999NDV FEW066 00/M03 Q1025 RMK

1°C / -3°C

[Больше]
Ветер variable 0kt
Видимость
Погода -
Облачность Scattered Clouds 6200ft
Давление 1025
Изменить -
Необработанный LSME 142250Z AUTO 00000KT 9999NDV SCT062 01/M03 Q1025 RMK

2°C / -3°C

[Больше]
Ветер variable 2kt
Видимость
Погода -
Облачность Scattered Clouds 6900ft
Давление 1025
Изменить -
Необработанный LSME 142220Z AUTO VRB02KT 9999NDV SCT069 02/M03 Q1025 RMK

2°C / -3°C

[Больше]
Ветер 20º 4kt
Видимость
Погода -
Облачность Broken Clouds 6900ft
Давление 1025
Изменить -
Необработанный LSME 142150Z AUTO 02004KT 9999NDV BKN069 02/M03 Q1025 RMK

2°C / -3°C

[Больше]
Ветер 350º 2kt
Видимость
Погода -
Облачность Broken Clouds 6900ft
Давление 1025
Изменить -
Необработанный LSME 142120Z AUTO 35002KT 9999NDV BKN069 02/M03 Q1025 RMK

3°C / -3°C

[Больше]
Ветер 360º 2kt
Видимость
Погода -
Облачность Scattered Clouds 7000ft
Давление 1025
Изменить -
Необработанный LSME 142050Z AUTO 36002KT 9999NDV SCT070 03/M03 Q1025 RMK

2°C / -3°C

[Больше]
Ветер 20º variable 320º to 060º 3kt
Видимость
Погода -
Облачность Few Clouds 7500ft
Давление 1025
Изменить -
Необработанный LSME 142020Z AUTO 02003KT 320V060 9999NDV FEW075 SCT100 02/M03 Q1025 RMK

3°C / -3°C

[Больше]
Ветер variable 0kt
Видимость
Погода -
Облачность Scattered Clouds 9900ft
Давление 1025
Изменить -
Необработанный LSME 141950Z AUTO 00000KT 9999NDV SCT099 03/M03 Q1025 RMK

2°C / -3°C

[Больше]
Ветер 40º 2kt
Видимость
Погода -
Облачность Broken Clouds 10000ft
Давление 1025
Изменить -
Необработанный LSME 141920Z AUTO 04002KT 9999NDV BKN100 02/M03 Q1025 RMK

5°C / -3°C

[Больше]
Ветер 20º 5kt
Видимость
Погода -
Облачность Few Clouds 5300ft
Давление 1024
Изменить -
Необработанный LSME 141850Z AUTO 02005KT 9999NDV FEW053 BKN099 05/M03 Q1024 RMK

5°C / -4°C

[Больше]
Ветер 10º 2kt
Видимость
Погода -
Облачность Broken Clouds 9200ft
Давление 1024
Изменить -
Необработанный LSME 141820Z AUTO 01002KT 9999NDV BKN092 05/M04 Q1024 RMK

5°C / -4°C

[Больше]
Ветер 40º 4kt
Видимость
Погода -
Облачность Scattered Clouds 7100ft
Давление 1024
Изменить -
Необработанный LSME 141750Z AUTO 04004KT 9999NDV SCT071 BKN093 05/M04 Q1024 RMK

7°C / -5°C

[Больше]
Ветер 20º 8kt
Видимость
Погода -
Облачность Broken Clouds 6700ft
Давление 1024
Изменить -
Необработанный LSME 141720Z AUTO 02008KT 9999NDV BKN067 BKN076 BKN093 07/M05 Q1024 RMK

7°C / -6°C

[Больше]
Ветер variable 1kt Gust 11kt
Видимость
Погода -
Облачность Scattered Clouds 6400ft
Давление 1023
Изменить -
Необработанный LSME 141650Z AUTO VRB01G11KT 9999NDV SCT064 SCT079 BKN091 07/M06 Q1023 RMK

7°C / -7°C

[Больше]
Ветер 30º variable 340º to 080º 3kt
Видимость
Погода -
Облачность Few Clouds 7000ft
Давление 1023
Изменить -
Необработанный LSME 141620Z AUTO 03003KT 340V080 9999NDV FEW070 BKN089 07/M07 Q1023 RMK

7°C / -7°C

[Больше]
Ветер 30º 6kt
Видимость
Погода -
Облачность Scattered Clouds 7100ft
Давление 1023
Изменить -
Необработанный LSME 141550Z AUTO 03006KT 9999NDV SCT071 OVC087 07/M07 Q1023 RMK

8°C / -7°C

[Больше]
Ветер 80º variable 030º to 120º 7kt
Видимость
Погода -
Облачность Scattered Clouds 6900ft
Давление 1024
Изменить -
Необработанный LSME 141520Z AUTO 08007KT 030V120 9999NDV SCT069 BKN084 08/M07 Q1024 RMK

Current satellite and rain images for Rothenburg, Швейцария

  • Осадки:
  • <1 мм
  • 1-2 мм
  • 2-5 мм
  • >5 мм

Указатель местности находится на Rothenburg. [Больше]

The real-time satellite image combines visible light during daytime with infrared radiation during nighttime. At night, the image is not dark as infrared radiation can detect temperature differences. Unfortunately, low clouds and fog are difficult to distinguish from ground temperatures and thus can be almost invisible during the night. Meteosat satellite images for Europe are updated in real-time every 5 minutes. GOES-16/GOES-17 (North & South America) and Himawari (Asia) images update every 10 minutes.

Вероятность осадков оценивается по данным радиолокаторов и спутников. Спутниковые данные о возможности осадков в ночное время менее точные, чем дневные данные. Оранжевыми крестами отмечаются места,где обнаруживается молния (болееЕвропа).

Копирайт 2021 EUMETSAT / meteoblue. Данные о молниях предоставляются со стороны nowcast.

Радарный и сверхкраткосрочный прогноз осадков для Rothenburg

Индикатор местности находится на Rothenburg. Анимация показывает радар осадков за последний час, а также прогноз погоды для1h. Умеренная морось или легкий снег могут быть незаметны для радара. Интенсивность осадковмаркированна цветной кодировкой, начиная со светло-синего и заканчивая темно-пурпурным.

Погода в настоящий момент и предупреждения

EUMETNET – MeteoAlarm

pictomap

Источник: MeteoSwiss

Возможны временные задержки между сведениями данного веб сайта и веб сайта www.meteoalarm.euwww.meteoalarm.eu.